TimeMDT,TemperatureF,Dew PointF,Humidity,Sea Level PressureIn,VisibilityMPH,Wind Direction,Wind SpeedMPH,Gust SpeedMPH,PrecipitationIn,Events,Conditions,WindDirDegrees,DateUTC
12:53 AM,57.0,34.0,42,29.88,10.0,ENE,3.5,-,N/A,,Clear,70,2013-06-07 06:53:00
1:53 AM,54.0,32.0,43,29.89,10.0,East,5.8,-,N/A,,Clear,100,2013-06-07 07:53:00
2:53 AM,55.0,32.0,42,29.88,10.0,South,3.5,-,N/A,,Clear,170,2013-06-07 08:53:00
3:53 AM,53.1,36.0,52,29.89,10.0,Calm,Calm,-,N/A,,Clear,0,2013-06-07 09:53:00
4:53 AM,53.1,34.0,48,29.90,10.0,Calm,Calm,-,N/A,,Clear,0,2013-06-07 10:53:00
5:53 AM,53.1,34.0,48,29.91,10.0,ESE,5.8,-,N/A,,Clear,120,2013-06-07 11:53:00
6:53 AM,52.0,36.0,54,29.93,10.0,Calm,Calm,-,N/A,,Clear,0,2013-06-07 12:53:00
7:53 AM,57.9,39.0,49,29.93,10.0,Calm,Calm,-,N/A,,Clear,0,2013-06-07 13:53:00
8:53 AM,63.0,37.0,38,29.92,10.0,Variable,3.5,-,N/A,,Clear,0,2013-06-07 14:53:00
9:53 AM,69.1,39.0,33,29.91,10.0,Variable,5.8,-,N/A,,Clear,0,2013-06-07 15:53:00
10:53 AM,73.9,37.0,26,29.88,10.0,NNE,5.8,-,N/A,,Clear,20,2013-06-07 16:53:00
11:53 AM,78.1,36.0,22,29.85,10.0,WNW,4.6,-,N/A,,Clear,290,2013-06-07 17:53:00
12:53 PM,80.1,33.1,18,29.83,10.0,North,5.8,-,N/A,,Partly Cloudy,350,2013-06-07 18:53:00
1:53 PM,82.9,30.0,15,29.81,10.0,North,12.7,19.6,N/A,,Clear,350,2013-06-07 19:53:00
2:53 PM,84.0,28.9,14,29.79,10.0,Variable,5.8,18.4,N/A,,Partly Cloudy,0,2013-06-07 20:53:00
3:53 PM,84.0,30.0,14,29.78,10.0,WNW,13.8,17.3,N/A,,Partly Cloudy,300,2013-06-07 21:53:00
4:53 PM,84.0,30.9,15,29.75,10.0,West,9.2,-,N/A,,Clear,260,2013-06-07 22:53:00
5:53 PM,84.9,32.0,15,29.74,10.0,WNW,15.0,-,N/A,,Clear,290,2013-06-07 23:53:00
6:53 PM,84.0,33.1,16,29.73,10.0,West,11.5,-,N/A,,Clear,280,2013-06-08 00:53:00
7:53 PM,80.1,34.0,19,29.73,10.0,WNW,4.6,-,N/A,,Clear,300,2013-06-08 01:53:00
8:53 PM,73.9,33.1,22,29.73,10.0,South,4.6,-,N/A,,Clear,190,2013-06-08 02:53:00
9:53 PM,66.9,33.1,28,29.74,10.0,SSE,5.8,-,N/A,,Clear,160,2013-06-08 03:53:00
10:53 PM,63.0,33.1,33,29.74,10.0,Calm,Calm,-,N/A,,Clear,0,2013-06-08 04:53:00
11:53 PM,60.1,37.9,44,29.75,10.0,SSE,3.5,-,N/A,,Clear,160,2013-06-08 05:53:00